Orbital Elements at Epoch 2459200.5 (2020-Dec-17.0) TDB
Reference: JPL 20 (heliocentric ecliptic J2000)
Element | Value | Uncertainty (1-sigma) | Units |
e | .1912301940494938 | 3.6783e-08 | |
a | 2.352324538346726 | 8.7903e-09 | au |
q | 1.902489060411296 | 9.0183e-08 | au |
i | 4.567590487987422 | 4.7221e-06 | deg |
node | 221.7452376827618 | 4.6109e-05 | deg |
peri | 81.71363253768415 | 4.8202e-05 | deg |
M | 12.98616598944196 | 1.2545e-05 | deg |
tp | 2459152.963989075204 (2020-Oct-30.46398908) | 4.5863e-05 | TDB |
period | 1317.784167154471 3.61 | 7.3866e-06 2.022e-08 | d yr |
n | .2731858592423054 | 1.5313e-09 | deg/d |
Q | 2.802160016282157 | 1.0471e-08 | au |
|
| | Orbit Determination Parameters
Additional Information
|